sat.trackr.live / text

‹ back to catalog

O3B FM13

NORAD 43234 · 2018-024D

PAYLOAD ACTIVE UNKNOWN

§ Identity

Operator
Country
O3B
Launch date
2018-03-09
Launch site
FRGUI
Launch vehicle
Mass (kg)
RCS (m²)

Purposes: comms

External: N2YO · Heavens-Above · Gunter

§ Orbital elements

Epoch: 2026-09-19T19:12:02.510784Z

Period
287.93 min
Inclination
0.0562°
Eccentricity
0.0000846
Mean motion
5.00115709 rev/d
Perigee alt
8,064.7 km
Apogee alt
8,067.1 km
Semi-major
14,444.0 km
B*
0.0000e+0
RAAN
341.9879°
Arg perigee
127.2625°
Mean anomaly
250.7609°
Rev number
15,578

§ Raw data

O3B FM131 43234U 18024D   26262.80002906 -.00000027  00000+0  00000+0 0  99922 43234   0.0562 341.9879 0000846 127.2625 250.7609  5.00115709155788

JSON: /api/v1/satellites/43234 · /tle

For live sub-satellite position, see the globe view (requires WebGL).

§ Visibility from observer

Set your observer location to see the next 7 days of passes ≥ 10°. The values pass through the URL so the page stays shareable.

No JS? Fill the form by hand. The geolocation button needs JavaScript.